,,,PA_Meas_PMT16A,,PR_Meas_QMR101_102,,RH_Meas_QMH101,,SR_Meas_QMS101,,TA_Meas_QMH101,,GenWind,,GenWind,
date,time,status,PA,status,PR,status,RH,status,SR,status,TA,status,DirAvg,status,SpdAvg,
2008-08-04, 00:00:05,VALID,1010.01,VALID,0,VALID,92.9046,VALID,0.105969,VALID,24.3547,VALID,12,VALID,0,
2008-08-04, 00:01:05,VALID,1010.02,VALID,0,VALID,93.0189,VALID,0.105969,VALID,24.3158,VALID,12,VALID,0,
2008-08-04, 00:02:05,VALID,1010.02,VALID,0,VALID,93.1257,VALID,0,VALID,24.3158,VALID,12,VALID,0,
2008-08-04, 00:03:05,VALID,1010.08,VALID,0,VALID,93.141,VALID,0.105969,VALID,24.2981,VALID,12,VALID,0,
2008-08-04, 00:04:05,VALID,1010.1,VALID,0,VALID,93.1791,VALID,0,VALID,24.2768,VALID,12,VALID,0,
2008-08-04, 00:05:05,VALID,1010.08,VALID,0,VALID,93.2096,VALID,0,VALID,24.2378,VALID,12,VALID,0,
2008-08-04, 00:06:05,VALID,1010.1,VALID,0,VALID,93.3011,VALID,0.105969,VALID,24.1988,VALID,16,VALID,0,
2008-08-04, 00:07:05,VALID,1010.1,VALID,0,VALID,93.4155,VALID,0.105969,VALID,24.1988,VALID,16,VALID,0,
2008-08-04, 00:08:05,VALID,1010.09,VALID,0,VALID,93.5222,VALID,0.105969,VALID,24.1988,VALID,16,VALID,0,
2008-08-04, 00:09:05,VALID,1010.11,VALID,0,VALID,93.6061,VALID,0.105969,VALID,24.2007,VALID,16,VALID,0,
2008-08-04, 00:10:05,VALID,1010.11,VALID,0,VALID,93.69,VALID,0.105969,VALID,24.1599,VALID,16,VALID,0,
2008-08-04, 00:11:05,VALID,1010.1,VALID,0,VALID,93.6976,VALID,0.105969,VALID,24.1599,VALID,16,VALID,0,
2008-08-04, 00:12:05,VALID,1010.09,VALID,0,VALID,93.7358,VALID,0,VALID,24.1404,VALID,16,VALID,0,
2008-08-04, 00:13:05,VALID,1010.09,VALID,0,VALID,93.7815,VALID,0.105969,VALID,24.1209,VALID,16,VALID,0,
2008-08-04, 00:14:05,VALID,1010.13,VALID,0,VALID,93.812,VALID,0.105969,VALID,24.1209,VALID,16,VALID,0,
2008-08-04, 00:15:05,VALID,1010.1,VALID,0,VALID,93.8959,VALID,0.105969,VALID,24.1404,VALID,16,VALID,0,
2008-08-04, 00:16:05,VALID,1010.13,VALID,0,VALID,93.9493,VALID,0.105969,VALID,24.1422,VALID,16,VALID,0,
2008-08-04, 00:17:05,VALID,1010.11,VALID,0,VALID,93.934,VALID,0.105969,VALID,24.1209,VALID,16,VALID,0,
2008-08-04, 00:18:05,VALID,1010.13,VALID,0,VALID,93.9645,VALID,0,VALID,24.1209,VALID,16,VALID,0,
2008-08-04, 00:19:05,VALID,1010.09,VALID,0,VALID,93.9188,VALID,0.105969,VALID,24.1014,VALID,16,VALID,0,
2008-08-04, 00:20:05,VALID,1010.1,VALID,0,VALID,93.9264,VALID,0.105969,VALID,24.1014,VALID,16,VALID,0,
2008-08-04, 00:21:05,VALID,1010.08,VALID,0,VALID,93.9035,VALID,0,VALID,24.0819,VALID,16,VALID,0,
2008-08-04, 00:22:05,VALID,1010.02,VALID,0,VALID,93.8578,VALID,0.105969,VALID,24.1032,VALID,16,VALID,0,
2008-08-04, 00:23:05,VALID,1009.98,VALID,0,VALID,93.8425,VALID,0.105969,VALID,24.0624,VALID,16,VALID,0,
2008-08-04, 00:24:05,VALID,1009.97,VALID,0,VALID,93.8654,VALID,0.105969,VALID,24.0429,VALID,16,VALID,0,
2008-08-04, 00:25:05,VALID,1009.98,VALID,0,VALID,93.9112,VALID,0.105969,VALID,24.0429,VALID,16,VALID,0,
2008-08-04, 00:26:05,VALID,1009.95,VALID,0,VALID,93.9569,VALID,0,VALID,24.0235,VALID,16,VALID,0,
2008-08-04, 00:27:05,VALID,1009.95,VALID,0,VALID,93.9569,VALID,0,VALID,24.0253,VALID,16,VALID,0,
2008-08-04, 00:28:05,VALID,1009.97,VALID,0,VALID,93.9874,VALID,0.105969,VALID,24.004,VALID,16,VALID,0,
2008-08-04, 00:29:05,VALID,1009.99,VALID,0,VALID,94.0255,VALID,0,VALID,23.9845,VALID,16,VALID,0,
2008-08-04, 00:30:05,VALID,1009.99,VALID,0,VALID,94.0713,VALID,0.105969,VALID,23.9845,VALID,16,VALID,0,
2008-08-04, 00:31:05,VALID,1009.99,VALID,0,VALID,94.0408,VALID,0.105969,VALID,23.965,VALID,16,VALID,0,
2008-08-04, 00:32:05,VALID,1010.01,VALID,0,VALID,94.056,VALID,0,VALID,23.9278,VALID,16,VALID,0,
2008-08-04, 00:33:05,VALID,1010.03,VALID,0,VALID,94.0942,VALID,0,VALID,23.9278,VALID,16,VALID,0,
2008-08-04, 00:34:05,VALID,1010.01,VALID,0,VALID,94.1094,VALID,0,VALID,23.8889,VALID,16,VALID,0,
2008-08-04, 00:35:05,VALID,1010,VALID,0,VALID,94.1628,VALID,0,VALID,23.8889,VALID,16,VALID,0,
2008-08-04, 00:36:05,VALID,1009.97,VALID,0,VALID,94.2009,VALID,0,VALID,23.8694,VALID,16,VALID,0,
2008-08-04, 00:37:05,VALID,1010.01,VALID,0,VALID,94.2619,VALID,0,VALID,23.8694,VALID,15,VALID,0,
2008-08-04, 00:38:05,VALID,1010,VALID,0,VALID,94.3153,VALID,0,VALID,23.8694,VALID,13,VALID,0,
2008-08-04, 00:39:05,VALID,1010.02,VALID,0,VALID,94.3153,VALID,0,VALID,23.8694,VALID,13,VALID,0,
2008-08-04, 00:40:05,VALID,1010.03,VALID,0,VALID,94.3153,VALID,0,VALID,23.8499,VALID,13,VALID,0,
2008-08-04, 00:41:05,VALID,1010.05,VALID,0,VALID,94.3382,VALID,0,VALID,23.8304,VALID,13,VALID,0,
2008-08-04, 00:42:05,VALID,1010.05,VALID,0,VALID,94.3534,VALID,0,VALID,23.8304,VALID,13,VALID,0,
2008-08-04, 00:43:05,VALID,1010.04,VALID,0,VALID,94.3839,VALID,0,VALID,23.8304,VALID,13,VALID,0,
2008-08-04, 00:44:05,VALID,1010.05,VALID,0,VALID,94.445,VALID,0,VALID,23.8304,VALID,13,VALID,0,
2008-08-04, 00:45:05,VALID,1010.03,VALID,0,VALID,94.4907,VALID,0,VALID,23.8304,VALID,13,VALID,0,
2008-08-04, 00:46:05,VALID,1010.02,VALID,0,VALID,94.5365,VALID,0,VALID,23.8304,VALID,13,VALID,0,
2008-08-04, 00:47:05,VALID,1010.02,VALID,0,VALID,94.5746,VALID,0,VALID,23.8304,VALID,13,VALID,0,
2008-08-04, 00:48:05,VALID,1010.02,VALID,0,VALID,94.6127,VALID,0,VALID,23.8304,VALID,13,VALID,0,
2008-08-04, 00:49:05,VALID,1010.03,VALID,0,VALID,94.6585,VALID,0,VALID,23.8091,VALID,13,VALID,0,
2008-08-04, 00:50:05,VALID,1010.03,VALID,0,VALID,94.6737,VALID,0,VALID,23.8499,VALID,4,VALID,0,
2008-08-04, 00:51:05,VALID,1010.05,VALID,0,VALID,94.7042,VALID,0,VALID,23.8694,VALID,4,VALID,0,
2008-08-04, 00:52:05,VALID,1010.05,VALID,0,VALID,94.7576,VALID,0,VALID,23.8889,VALID,4,VALID,0,
2008-08-04, 00:53:05,VALID,1010.02,VALID,0,VALID,94.7729,VALID,0,VALID,23.8694,VALID,4,VALID,0,
2008-08-04, 00:54:05,VALID,1010.02,VALID,0,VALID,94.7119,VALID,0,VALID,23.8889,VALID,4,VALID,0,
2008-08-04, 00:55:05,VALID,1010.02,VALID,0,VALID,94.6966,VALID,0,VALID,23.8889,VALID,4,VALID,0,
2008-08-04, 00:56:05,VALID,1010.01,VALID,0,VALID,94.6814,VALID,0,VALID,23.8889,VALID,4,VALID,0,
2008-08-04, 00:57:05,VALID,1009.99,VALID,0,VALID,94.6356,VALID,0,VALID,23.8694,VALID,4,VALID,0,
2008-08-04, 00:58:05,VALID,1009.98,VALID,0,VALID,94.6508,VALID,0,VALID,23.8694,VALID,4,VALID,0,
2008-08-04, 00:59:05,VALID,1009.99,VALID,0,VALID,94.6508,VALID,0,VALID,23.8907,VALID,4,VALID,0,
2008-08-04, 01:00:05,VALID,1009.98,VALID,0,VALID,94.6356,VALID,0.105969,VALID,23.8481,VALID,4,VALID,0,
2008-08-04, 01:01:05,VALID,1009.99,VALID,0,VALID,94.6127,VALID,0.105969,VALID,23.8481,VALID,4,VALID,0,
2008-08-04, 01:02:05,VALID,1010.01,VALID,0,VALID,94.6127,VALID,0.105969,VALID,23.8481,VALID,5,VALID,0,
2008-08-04, 01:03:05,VALID,1010.02,VALID,0,VALID,94.6432,VALID,0.105969,VALID,23.8481,VALID,5,VALID,0,
2008-08-04, 01:04:05,VALID,1010.06,VALID,0,VALID,94.689,VALID,0.105969,VALID,23.8481,VALID,5,VALID,0,
2008-08-04, 01:05:05,VALID,1010.05,VALID,0,VALID,94.6966,VALID,0.105969,VALID,23.8676,VALID,5,VALID,0,
2008-08-04, 01:06:05,VALID,1010.05,VALID,0,VALID,94.7119,VALID,0.105969,VALID,23.8481,VALID,5,VALID,0,
2008-08-04, 01:07:05,VALID,1010.08,VALID,0,VALID,94.7195,VALID,0.105969,VALID,23.8676,VALID,5,VALID,0,
2008-08-04, 01:08:05,VALID,1010.07,VALID,0,VALID,94.7424,VALID,0,VALID,23.8658,VALID,5,VALID,0,
2008-08-04, 01:09:05,VALID,1010.07,VALID,0,VALID,94.7576,VALID,0.105969,VALID,23.8676,VALID,5,VALID,0,
2008-08-04, 01:10:05,VALID,1010.1,VALID,0,VALID,94.7347,VALID,0.105969,VALID,23.8676,VALID,5,VALID,0,
2008-08-04, 01:11:05,VALID,1010.07,VALID,0,VALID,94.7347,VALID,0.105969,VALID,23.8871,VALID,5,VALID,0,
2008-08-04, 01:12:05,VALID,1010.1,VALID,0,VALID,94.7195,VALID,0.105969,VALID,23.8676,VALID,5,VALID,0,
2008-08-04, 01:13:05,VALID,1010.08,VALID,0,VALID,94.6966,VALID,0.105969,VALID,23.8481,VALID,5,VALID,0,
2008-08-04, 01:14:05,VALID,1010.09,VALID,0,VALID,94.6814,VALID,0.105969,VALID,23.8676,VALID,5,VALID,0,
2008-08-04, 01:15:05,VALID,1010.09,VALID,0,VALID,94.6585,VALID,0,VALID,23.8499,VALID,5,VALID,0,
2008-08-04, 01:16:05,VALID,1010.07,VALID,0,VALID,94.6432,VALID,0.105969,VALID,23.8286,VALID,5,VALID,0,
2008-08-04, 01:17:05,VALID,1010.06,VALID,0,VALID,94.6585,VALID,0.105969,VALID,23.8481,VALID,5,VALID,0,
2008-08-04, 01:18:05,VALID,1010.05,VALID,0,VALID,94.6737,VALID,0.105969,VALID,23.8481,VALID,5,VALID,0,
2008-08-04, 01:19:05,VALID,1010.04,VALID,0,VALID,94.6814,VALID,0.105969,VALID,23.8481,VALID,5,VALID,0,
2008-08-04, 01:20:05,VALID,1010,VALID,0,VALID,94.6661,VALID,0.105969,VALID,23.8676,VALID,5,VALID,0,
2008-08-04, 01:21:05,VALID,1009.99,VALID,0,VALID,94.6661,VALID,0.105969,VALID,23.8268,VALID,5,VALID,0,
2008-08-04, 01:22:05,VALID,1009.97,VALID,0,VALID,94.6508,VALID,0.105969,VALID,23.8676,VALID,5,VALID,0,
2008-08-04, 01:23:05,VALID,1009.94,VALID,0,VALID,94.6356,VALID,0.105969,VALID,23.8481,VALID,5,VALID,0,
2008-08-04, 01:24:05,VALID,1009.94,VALID,0,VALID,94.6432,VALID,0.105969,VALID,23.8499,VALID,5,VALID,0,
2008-08-04, 01:25:05,VALID,1009.9,VALID,0,VALID,94.6203,VALID,0.105969,VALID,23.8676,VALID,5,VALID,0,
2008-08-04, 01:26:05,VALID,1009.88,VALID,0,VALID,94.6737,VALID,0.105969,VALID,23.8268,VALID,5,VALID,0,
2008-08-04, 01:27:05,VALID,1009.89,VALID,0,VALID,94.6432,VALID,0.105969,VALID,23.8676,VALID,5,VALID,0,
2008-08-04, 01:28:05,VALID,1009.85,VALID,0,VALID,94.6737,VALID,0,VALID,23.8676,VALID,5,VALID,0,
2008-08-04, 01:29:05,VALID,1009.85,VALID,0,VALID,94.6508,VALID,0.105969,VALID,23.8676,VALID,5,VALID,0,
2008-08-04, 01:30:05,VALID,1009.85,VALID,0,VALID,94.6737,VALID,0,VALID,23.8694,VALID,5,VALID,0,
2008-08-04, 01:31:05,VALID,1009.8,VALID,0,VALID,94.6814,VALID,0,VALID,23.8907,VALID,5,VALID,0,
2008-08-04, 01:32:05,VALID,1009.79,VALID,0,VALID,94.7347,VALID,0,VALID,23.8889,VALID,5,VALID,0,
2008-08-04, 01:33:05,VALID,1009.76,VALID,0,VALID,94.7042,VALID,0,VALID,23.8889,VALID,5,VALID,0,
2008-08-04, 01:34:05,VALID,1009.77,VALID,0,VALID,94.6508,VALID,0,VALID,23.9084,VALID,5,VALID,0,
2008-08-04, 01:35:05,VALID,1009.74,VALID,0,VALID,94.6508,VALID,0,VALID,23.9084,VALID,5,VALID,0,
2008-08-04, 01:36:05,VALID,1009.72,VALID,0,VALID,94.6585,VALID,0,VALID,23.9084,VALID,5,VALID,0,
2008-08-04, 01:37:05,VALID,1009.73,VALID,0,VALID,94.6585,VALID,0,VALID,23.9278,VALID,5,VALID,0,
2008-08-04, 01:38:05,VALID,1009.75,VALID,0,VALID,94.6508,VALID,0,VALID,23.9473,VALID,5,VALID,0,
2008-08-04, 01:39:05,VALID,1009.73,VALID,0,VALID,94.6356,VALID,0,VALID,23.9686,VALID,5,VALID,0,
2008-08-04, 01:40:05,VALID,1009.73,VALID,0,VALID,94.6127,VALID,0,VALID,23.9473,VALID,5,VALID,0,
2008-08-04, 01:41:05,VALID,1009.75,VALID,0,VALID,94.5975,VALID,0,VALID,23.9863,VALID,5,VALID,0,
2008-08-04, 01:42:05,VALID,1009.76,VALID,0,VALID,94.5898,VALID,0,VALID,23.9863,VALID,5,VALID,0,
2008-08-04, 01:43:05,VALID,1009.76,VALID,0,VALID,94.5365,VALID,0,VALID,23.9863,VALID,5,VALID,0,
2008-08-04, 01:44:05,VALID,1009.77,VALID,0,VALID,94.5212,VALID,0,VALID,23.9863,VALID,5,VALID,0,
2008-08-04, 01:45:05,VALID,1009.76,VALID,0,VALID,94.4983,VALID,0,VALID,23.9863,VALID,5,VALID,0,
2008-08-04, 01:46:05,VALID,1009.75,VALID,0,VALID,94.4831,VALID,0,VALID,23.9668,VALID,5,VALID,0,
2008-08-04, 01:47:05,VALID,1009.75,VALID,0,VALID,94.4983,VALID,0,VALID,23.9668,VALID,5,VALID,0,
2008-08-04, 01:48:05,VALID,1009.73,VALID,0,VALID,94.4831,VALID,0,VALID,23.9863,VALID,5,VALID,0,
2008-08-04, 01:49:05,VALID,1009.74,VALID,0,VALID,94.5517,VALID,0,VALID,24.1422,VALID,197,VALID,1.20039,
2008-08-04, 01:50:05,VALID,1009.74,VALID,0,VALID,94.3382,VALID,0,VALID,24.2396,VALID,194,VALID,0.397656,
2008-08-04, 01:51:05,VALID,1009.7,VALID,0,VALID,94.0027,VALID,0,VALID,24.2786,VALID,194,VALID,0.159766,
2008-08-04, 01:52:05,VALID,1009.73,VALID,0,VALID,93.6366,VALID,0,VALID,24.3176,VALID,188,VALID,0.278906,
2008-08-04, 01:53:05,VALID,1009.71,VALID,0,VALID,93.3926,VALID,0,VALID,24.3176,VALID,150,VALID,0.494922,
2008-08-04, 01:54:05,VALID,1009.75,VALID,0,VALID,93.202,VALID,0,VALID,24.3956,VALID,150,VALID,0.0878906,
2008-08-04, 01:55:05,VALID,1009.74,VALID,0,VALID,92.9427,VALID,0,VALID,24.3956,VALID,171,VALID,0.303125,
2008-08-04, 01:56:05,VALID,1009.78,VALID,0,VALID,92.7292,VALID,0,VALID,24.4364,VALID,171,VALID,0.0410156,
2008-08-04, 01:57:05,VALID,1009.77,VALID,0,VALID,92.5766,VALID,0,VALID,24.4754,VALID,171,VALID,0.336328,
2008-08-04, 01:58:05,VALID,1009.72,VALID,0,VALID,92.4241,VALID,0,VALID,24.5144,VALID,168,VALID,0.498828,
2008-08-04, 01:59:05,VALID,1009.74,VALID,0,VALID,92.2335,VALID,0,VALID,24.5144,VALID,167,VALID,0.316797,
2008-08-04, 02:00:05,VALID,1009.73,VALID,0,VALID,92.0962,VALID,0,VALID,24.5338,VALID,167,VALID,0.159375,
2008-08-04, 02:01:05,VALID,1009.73,VALID,0,VALID,91.9666,VALID,0,VALID,24.5533,VALID,161,VALID,0.520703,
2008-08-04, 02:02:05,VALID,1009.71,VALID,0,VALID,91.8522,VALID,0,VALID,24.571,VALID,165,VALID,0.322266,
2008-08-04, 02:03:05,VALID,1009.7,VALID,0,VALID,91.9208,VALID,0,VALID,24.6313,VALID,171,VALID,0.373047,
2008-08-04, 02:04:05,VALID,1009.69,VALID,0,VALID,91.8064,VALID,0,VALID,24.6294,VALID,171,VALID,0.0585938,
2008-08-04, 02:05:05,VALID,1009.71,VALID,0,VALID,91.7531,VALID,0,VALID,24.6508,VALID,171,VALID,0.190234,
2008-08-04, 02:06:05,VALID,1009.7,VALID,0,VALID,91.5014,VALID,0,VALID,24.6489,VALID,171,VALID,0.158984,
2008-08-04, 02:07:05,VALID,1009.68,VALID,0,VALID,91.387,VALID,0,VALID,24.6684,VALID,171,VALID,0.00976563,
2008-08-04, 02:08:05,VALID,1009.67,VALID,0,VALID,91.3184,VALID,0,VALID,24.6879,VALID,171,VALID,0.0304688,
2008-08-04, 02:09:05,VALID,1009.65,VALID,0,VALID,91.3565,VALID,0,VALID,24.6879,VALID,171,VALID,0,
2008-08-04, 02:10:05,VALID,1009.62,VALID,0,VALID,91.265,VALID,0,VALID,24.6879,VALID,171,VALID,0.241797,
2008-08-04, 02:11:05,VALID,1009.62,VALID,0,VALID,91.2345,VALID,0,VALID,24.6684,VALID,171,VALID,0,
2008-08-04, 02:12:05,VALID,1009.59,VALID,0,VALID,91.1888,VALID,0,VALID,24.7093,VALID,171,VALID,0.126563,
2008-08-04, 02:13:04,VALID,1009.58,VALID,0,VALID,91.1811,VALID,0,VALID,24.6879,VALID,171,VALID,0.00351562,
2008-08-04, 02:14:04,VALID,1009.57,VALID,0,VALID,91.1354,VALID,0,VALID,24.7288,VALID,147,VALID,0.258594,
2008-08-04, 02:15:04,VALID,1009.57,VALID,0,VALID,91.082,VALID,0.105969,VALID,24.7055,VALID,147,VALID,0,
2008-08-04, 02:16:04,VALID,1009.6,VALID,0,VALID,90.9676,VALID,0.105969,VALID,24.7055,VALID,147,VALID,0,
2008-08-04, 02:17:04,VALID,1009.58,VALID,0,VALID,91.0134,VALID,0,VALID,24.7074,VALID,147,VALID,0,
2008-08-04, 02:18:04,VALID,1009.59,VALID,0,VALID,91.0896,VALID,0,VALID,24.6666,VALID,147,VALID,0,
2008-08-04, 02:19:04,VALID,1009.55,VALID,0,VALID,91.3336,VALID,0,VALID,24.6471,VALID,147,VALID,0.0816406,
2008-08-04, 02:20:04,VALID,1009.56,VALID,0,VALID,91.3947,VALID,0,VALID,24.6081,VALID,147,VALID,0.333594,
2008-08-04, 02:21:04,VALID,1009.55,VALID,0,VALID,91.5319,VALID,0,VALID,24.5691,VALID,147,VALID,0.210938,
2008-08-04, 02:22:04,VALID,1009.53,VALID,0,VALID,91.5624,VALID,0,VALID,24.532,VALID,147,VALID,0.226563,
2008-08-04, 02:23:04,VALID,1009.53,VALID,0,VALID,91.6997,VALID,0,VALID,24.493,VALID,147,VALID,0.116406,
2008-08-04, 02:24:04,VALID,1009.49,VALID,0,VALID,91.6997,VALID,0,VALID,24.415,VALID,147,VALID,0.281641,
2008-08-04, 02:25:04,VALID,1009.49,VALID,0,VALID,91.9513,VALID,0.105969,VALID,24.3352,VALID,147,VALID,0.164063,
2008-08-04, 02:26:04,VALID,1009.51,VALID,0,VALID,92.3555,VALID,0,VALID,24.3371,VALID,147,VALID,0.115625,
2008-08-04, 02:27:04,VALID,1009.51,VALID,0,VALID,92.5233,VALID,0,VALID,24.2981,VALID,147,VALID,0.084375,
2008-08-04, 02:28:04,VALID,1009.5,VALID,0,VALID,92.5843,VALID,0.105969,VALID,24.2378,VALID,147,VALID,0.127734,
2008-08-04, 02:29:04,VALID,1009.52,VALID,0,VALID,92.5995,VALID,0.105969,VALID,24.2183,VALID,147,VALID,0.198437,
2008-08-04, 02:30:04,VALID,1009.51,VALID,0,VALID,92.5538,VALID,0,VALID,24.1988,VALID,134,VALID,0.240234,
2008-08-04, 02:31:04,VALID,1009.48,VALID,0,VALID,92.5538,VALID,0,VALID,24.1793,VALID,112,VALID,0.172656,
2008-08-04, 02:32:04,VALID,1009.51,VALID,0,VALID,92.752,VALID,0,VALID,24.1793,VALID,112,VALID,0,
2008-08-04, 02:33:04,VALID,1009.49,VALID,0,VALID,92.9122,VALID,0.105969,VALID,24.1599,VALID,112,VALID,0,
2008-08-04, 02:34:04,VALID,1009.5,VALID,0,VALID,93.0037,VALID,0.105969,VALID,24.1599,VALID,112,VALID,0,
2008-08-04, 02:35:04,VALID,1009.55,VALID,0,VALID,93.0494,VALID,0,VALID,24.1599,VALID,112,VALID,0,
2008-08-04, 02:36:04,VALID,1009.55,VALID,0,VALID,93.0952,VALID,0.105969,VALID,24.1404,VALID,112,VALID,0,
2008-08-04, 02:37:04,VALID,1009.55,VALID,0,VALID,93.0037,VALID,0.105969,VALID,24.1209,VALID,99,VALID,0.296484,
2008-08-04, 02:38:04,VALID,1009.58,VALID,0,VALID,92.9961,VALID,0,VALID,24.0819,VALID,21,VALID,0.510547,
2008-08-04, 02:39:04,VALID,1009.6,VALID,0,VALID,93.1638,VALID,0.105969,VALID,24.0448,VALID,353,VALID,0.458594,
2008-08-04, 02:40:04,VALID,1009.61,VALID,0,VALID,93.2248,VALID,0.105969,VALID,24.004,VALID,353,VALID,0.338281,
2008-08-04, 02:41:04,VALID,1009.63,VALID,0,VALID,93.2401,VALID,0.105969,VALID,23.9845,VALID,353,VALID,0.303516,
2008-08-04, 02:42:04,VALID,1009.62,VALID,0,VALID,93.3392,VALID,0,VALID,23.9668,VALID,353,VALID,0.208594,
2008-08-04, 02:43:04,VALID,1009.62,VALID,0,VALID,93.4384,VALID,0,VALID,23.9278,VALID,353,VALID,0.174219,
2008-08-04, 02:44:04,VALID,1009.61,VALID,0,VALID,93.5451,VALID,0,VALID,23.8871,VALID,353,VALID,0.283203,
2008-08-04, 02:45:04,VALID,1009.61,VALID,0,VALID,93.69,VALID,0.105969,VALID,23.8889,VALID,353,VALID,0.326953,
2008-08-04, 02:46:04,VALID,1009.61,VALID,0,VALID,93.7586,VALID,0.105969,VALID,23.8676,VALID,353,VALID,0.0238281,
2008-08-04, 02:47:04,VALID,1009.61,VALID,0,VALID,93.8349,VALID,0,VALID,23.8676,VALID,353,VALID,0.0015625,
2008-08-04, 02:48:04,VALID,1009.6,VALID,0,VALID,93.8578,VALID,0.105969,VALID,23.8676,VALID,353,VALID,0.192578,
2008-08-04, 02:49:04,VALID,1009.64,VALID,0,VALID,93.9569,VALID,0.105969,VALID,23.8676,VALID,353,VALID,0.39375,
2008-08-04, 02:50:04,VALID,1009.66,VALID,0,VALID,94.056,VALID,0.105969,VALID,23.8871,VALID,331,VALID,0.383203,
2008-08-04, 02:51:04,VALID,1009.69,VALID,0,VALID,94.0637,VALID,0.105969,VALID,23.9065,VALID,331,VALID,0.0046875,
2008-08-04, 02:52:04,VALID,1009.7,VALID,0,VALID,94.0179,VALID,0.105969,VALID,23.9455,VALID,224,VALID,0.351563,
2008-08-04, 02:53:04,VALID,1009.7,VALID,0,VALID,93.9645,VALID,0.105969,VALID,24.004,VALID,221,VALID,0.235156,
2008-08-04, 02:54:04,VALID,1009.7,VALID,0,VALID,93.4841,VALID,0.105969,VALID,23.9845,VALID,221,VALID,0.483594,
2008-08-04, 02:55:04,VALID,1009.73,VALID,0,VALID,93.2706,VALID,0.105969,VALID,23.9455,VALID,221,VALID,0.182422,
2008-08-04, 02:56:04,VALID,1009.72,VALID,0,VALID,93.263,VALID,0.105969,VALID,23.9845,VALID,221,VALID,0.0464844,
2008-08-04, 02:57:04,VALID,1009.68,VALID,0,VALID,93.2172,VALID,0.105969,VALID,23.9845,VALID,221,VALID,0,
2008-08-04, 02:58:04,VALID,1009.7,VALID,0,VALID,93.2782,VALID,0.105969,VALID,23.9845,VALID,221,VALID,0,
2008-08-04, 02:59:04,VALID,1009.7,VALID,0,VALID,93.324,VALID,0.105969,VALID,23.965,VALID,221,VALID,0,
2008-08-04, 03:00:04,VALID,1009.69,VALID,0,VALID,93.3773,VALID,0,VALID,23.9668,VALID,221,VALID,0.0257812,
2008-08-04, 03:01:04,VALID,1009.68,VALID,0,VALID,93.3392,VALID,0,VALID,23.9668,VALID,221,VALID,0.273828,
2008-08-04, 03:02:04,VALID,1009.69,VALID,0,VALID,93.2935,VALID,0,VALID,23.9668,VALID,221,VALID,0.0316406,
2008-08-04, 03:03:04,VALID,1009.66,VALID,0,VALID,93.2325,VALID,0,VALID,23.9686,VALID,218,VALID,0.227344,
2008-08-04, 03:04:04,VALID,1009.65,VALID,0,VALID,93.2553,VALID,0,VALID,23.9863,VALID,147,VALID,0.466406,
2008-08-04, 03:05:04,VALID,1009.65,VALID,0,VALID,93.1257,VALID,0,VALID,24.0253,VALID,115,VALID,0.510938,
2008-08-04, 03:06:04,VALID,1009.66,VALID,0,VALID,92.7902,VALID,0,VALID,24.0253,VALID,98,VALID,0.629297,
2008-08-04, 03:07:04,VALID,1009.67,VALID,0,VALID,92.7139,VALID,0,VALID,24.0661,VALID,104,VALID,0.514844,
2008-08-04, 03:08:04,VALID,1009.67,VALID,0,VALID,92.6376,VALID,0,VALID,24.0448,VALID,110,VALID,0.329688,
2008-08-04, 03:09:04,VALID,1009.68,VALID,0,VALID,92.6758,VALID,0,VALID,24.0466,VALID,137,VALID,0.6,
2008-08-04, 03:10:04,VALID,1009.66,VALID,0,VALID,92.6682,VALID,0,VALID,24.0448,VALID,138,VALID,0.197656,
2008-08-04, 03:11:04,VALID,1009.7,VALID,0,VALID,92.5461,VALID,0,VALID,24.0837,VALID,174,VALID,1.29922,
2008-08-04, 03:12:04,VALID,1009.68,VALID,0,VALID,92.2106,VALID,0,VALID,24.2007,VALID,160,VALID,0.734766,
2008-08-04, 03:13:04,VALID,1009.7,VALID,0,VALID,91.7607,VALID,0,VALID,24.2805,VALID,161,VALID,0.478516,
2008-08-04, 03:14:04,VALID,1009.72,VALID,0,VALID,91.5167,VALID,0,VALID,24.2786,VALID,161,VALID,0.464063,
2008-08-04, 03:15:04,VALID,1009.68,VALID,0,VALID,91.4328,VALID,0.105969,VALID,24.3158,VALID,162,VALID,0.457031,
2008-08-04, 03:16:04,VALID,1009.68,VALID,0,VALID,91.3108,VALID,0.105969,VALID,24.3158,VALID,170,VALID,0.594531,
2008-08-04, 03:17:04,VALID,1009.65,VALID,0,VALID,91.2345,VALID,0.105969,VALID,24.3371,VALID,172,VALID,0.522266,
2008-08-04, 03:18:04,VALID,1009.63,VALID,0,VALID,91.1964,VALID,0.105969,VALID,24.3352,VALID,175,VALID,0.473047,
2008-08-04, 03:19:04,VALID,1009.63,VALID,0,VALID,91.204,VALID,0,VALID,24.3176,VALID,178,VALID,0.438672,
2008-08-04, 03:20:04,VALID,1009.63,VALID,0,VALID,91.1506,VALID,0,VALID,24.2963,VALID,185,VALID,0.582031,
2008-08-04, 03:21:04,VALID,1009.65,VALID,0,VALID,90.9981,VALID,0,VALID,24.3158,VALID,181,VALID,0.733984,
2008-08-04, 03:22:04,VALID,1009.65,VALID,0,VALID,90.7846,VALID,0.105969,VALID,24.2963,VALID,162,VALID,0.7375,
2008-08-04, 03:23:04,VALID,1009.7,VALID,0,VALID,90.6778,VALID,0,VALID,24.2768,VALID,167,VALID,0.753516,
2008-08-04, 03:24:04,VALID,1009.73,VALID,0,VALID,90.6702,VALID,0.105969,VALID,24.2768,VALID,160,VALID,0.482031,
2008-08-04, 03:25:04,VALID,1009.74,VALID,0,VALID,90.7541,VALID,0,VALID,24.2981,VALID,169,VALID,0.491797,
2008-08-04, 03:26:04,VALID,1009.76,VALID,0,VALID,90.9142,VALID,0.105969,VALID,24.2573,VALID,169,VALID,0.171484,
2008-08-04, 03:27:04,VALID,1009.76,VALID,0,VALID,91.1278,VALID,0,VALID,24.2378,VALID,169,VALID,0.241406,
2008-08-04, 03:28:04,VALID,1009.73,VALID,0,VALID,91.3565,VALID,0.105969,VALID,24.2591,VALID,140,VALID,0.371094,
2008-08-04, 03:29:04,VALID,1009.75,VALID,0,VALID,91.4633,VALID,0.105969,VALID,24.2183,VALID,140,VALID,0.258984,
2008-08-04, 03:30:04,VALID,1009.69,VALID,0,VALID,91.57,VALID,0,VALID,24.2396,VALID,140,VALID,0.259375,
2008-08-04, 03:31:04,VALID,1009.67,VALID,0,VALID,91.4785,VALID,0,VALID,24.2183,VALID,140,VALID,0.204297,
2008-08-04, 03:32:04,VALID,1009.67,VALID,0,VALID,91.4099,VALID,0,VALID,24.1988,VALID,140,VALID,0.0972656,
2008-08-04, 03:33:04,VALID,1009.66,VALID,0,VALID,91.326,VALID,0,VALID,24.2396,VALID,140,VALID,0.0296875,
2008-08-04, 03:34:04,VALID,1009.66,VALID,0,VALID,91.2574,VALID,0.105969,VALID,24.2396,VALID,140,VALID,0.175391,
2008-08-04, 03:35:04,VALID,1009.64,VALID,0,VALID,91.1888,VALID,0.105969,VALID,24.2183,VALID,140,VALID,0.00234375,
2008-08-04, 03:36:04,VALID,1009.67,VALID,0,VALID,91.2345,VALID,0,VALID,24.2183,VALID,140,VALID,0.310156,
2008-08-04, 03:37:04,VALID,1009.64,VALID,0,VALID,91.265,VALID,0.105969,VALID,24.1988,VALID,155,VALID,0.510938,
2008-08-04, 03:38:04,VALID,1009.64,VALID,0,VALID,91.387,VALID,0,VALID,24.1793,VALID,155,VALID,0.366797,
2008-08-04, 03:39:04,VALID,1009.65,VALID,0,VALID,91.4404,VALID,0,VALID,24.1599,VALID,164,VALID,0.573047,
2008-08-04, 03:40:04,VALID,1009.65,VALID,0,VALID,91.2955,VALID,0.105969,VALID,24.1404,VALID,163,VALID,0.520312,
2008-08-04, 03:41:04,VALID,1009.67,VALID,0,VALID,91.5014,VALID,0,VALID,24.1227,VALID,181,VALID,0.383594,
2008-08-04, 03:42:04,VALID,1009.69,VALID,0,VALID,91.5014,VALID,0,VALID,24.0624,VALID,163,VALID,0.550391,
2008-08-04, 03:43:04,VALID,1009.71,VALID,0,VALID,91.509,VALID,0,VALID,24.0448,VALID,163,VALID,0.334375,
2008-08-04, 03:44:04,VALID,1009.75,VALID,0,VALID,91.5929,VALID,0,VALID,24.004,VALID,163,VALID,0.221875,
2008-08-04, 03:45:04,VALID,1009.76,VALID,0,VALID,91.6921,VALID,0,VALID,23.965,VALID,163,VALID,0.298438,
2008-08-04, 03:46:04,VALID,1009.77,VALID,0,VALID,91.7607,VALID,0,VALID,23.9863,VALID,163,VALID,0.283203,
2008-08-04, 03:47:04,VALID,1009.78,VALID,0,VALID,91.9361,VALID,0.105969,VALID,23.9473,VALID,163,VALID,0.0300781,